Time,TemperatureF,DewpointF,PressureIn,WindDirection,WindDirectionDegrees,WindSpeedMPH,WindSpeedGustMPH,Humidity,HourlyPrecipIn,Conditions,Clouds,dailyrainin,SoftwareType,DateUTC
2013-01-31 00:00:00,39.2,37.3,30.29,SE,140,0.0,0.0,93,0.00,,,0.00,Wunderground v.1.15,2013-01-31 08:00:00,
2013-01-31 00:10:00,39.0,37.1,30.29,SE,140,0.0,0.0,93,0.00,,,0.00,Wunderground v.1.15,2013-01-31 08:10:00,
2013-01-31 00:15:00,38.7,36.6,30.29,SE,140,0.0,0.0,92,0.00,,,0.00,Wunderground v.1.15,2013-01-31 08:15:00,
2013-01-31 00:25:00,38.6,36.8,30.29,SE,140,0.0,0.0,93,0.00,,,0.00,Wunderground v.1.15,2013-01-31 08:25:00,
2013-01-31 00:35:00,38.3,36.5,30.29,SSW,205,0.0,0.0,93,0.00,,,0.00,Wunderground v.1.15,2013-01-31 08:35:00,
2013-01-31 00:45:00,37.8,36.0,30.29,SSW,201,0.0,0.0,93,0.00,,,0.00,Wunderground v.1.15,2013-01-31 08:45:00,
2013-01-31 00:55:00,37.5,35.7,30.29,SSW,201,0.0,0.0,93,0.00,,,0.00,Wunderground v.1.15,2013-01-31 08:55:00,
2013-01-31 01:00:00,37.3,35.5,30.29,SSW,201,0.0,0.0,93,0.00,,,0.00,Wunderground v.1.15,2013-01-31 09:00:00,
2013-01-31 01:10:00,37.5,35.9,30.29,SSE,160,0.0,0.0,94,0.00,,,0.00,Wunderground v.1.15,2013-01-31 09:10:00,
2013-01-31 01:15:00,37.3,35.7,30.29,SSE,160,0.0,0.0,94,0.00,,,0.00,Wunderground v.1.15,2013-01-31 09:15:00,
2013-01-31 01:25:00,37.6,36.3,30.30,South,183,0.0,0.0,95,0.00,,,0.00,Wunderground v.1.15,2013-01-31 09:25:00,
2013-01-31 01:35:00,37.0,35.2,30.30,East,101,0.0,0.0,93,0.00,,,0.00,Wunderground v.1.15,2013-01-31 09:35:00,
2013-01-31 01:45:00,36.2,34.6,30.30,East,101,0.0,0.0,94,0.00,,,0.00,Wunderground v.1.15,2013-01-31 09:45:00,
2013-01-31 01:55:00,35.6,34.0,30.29,East,101,0.0,0.0,94,0.00,,,0.00,Wunderground v.1.15,2013-01-31 09:55:00,
2013-01-31 02:00:00,35.4,33.8,30.29,ESE,102,0.0,0.0,94,0.00,,,0.00,Wunderground v.1.15,2013-01-31 10:00:00,
2013-01-31 02:10:00,35.5,34.2,30.29,ESE,102,0.0,0.0,95,0.00,,,0.00,Wunderground v.1.15,2013-01-31 10:10:00,
2013-01-31 02:20:00,35.6,34.0,30.29,East,101,0.0,0.0,94,0.00,,,0.00,Wunderground v.1.15,2013-01-31 10:20:00,
2013-01-31 02:30:00,35.5,33.9,30.29,East,101,0.0,0.0,94,0.00,,,0.00,Wunderground v.1.15,2013-01-31 10:30:00,
2013-01-31 02:40:00,35.0,33.4,30.28,ESE,120,0.0,0.0,94,0.00,,,0.00,Wunderground v.1.15,2013-01-31 10:40:00,
2013-01-31 02:50:00,34.8,33.5,30.28,ESE,120,0.0,0.0,95,0.00,,,0.00,Wunderground v.1.15,2013-01-31 10:50:00,
2013-01-31 03:00:00,34.5,33.0,30.28,ESE,120,0.0,0.0,94,0.00,,,0.00,Wunderground v.1.15,2013-01-31 11:00:00,
2013-01-31 03:10:00,34.3,33.0,30.28,ESE,120,0.0,0.0,95,0.00,,,0.00,Wunderground v.1.15,2013-01-31 11:10:00,
2013-01-31 03:20:00,34.1,32.8,30.28,ESE,120,0.0,0.0,95,0.00,,,0.00,Wunderground v.1.15,2013-01-31 11:20:00,
2013-01-31 03:30:00,34.2,32.9,30.27,ESE,120,0.0,0.0,95,0.00,,,0.00,Wunderground v.1.15,2013-01-31 11:30:00,
2013-01-31 03:40:00,33.7,32.4,30.27,ESE,120,0.0,0.0,95,0.00,,,0.00,Wunderground v.1.15,2013-01-31 11:40:00,
2013-01-31 03:50:00,33.3,32.0,30.27,ESE,120,0.0,0.0,95,0.00,,,0.00,Wunderground v.1.15,2013-01-31 11:50:00,
2013-01-31 04:00:00,33.8,32.8,30.27,ESE,120,0.0,0.0,96,0.00,,,0.00,Wunderground v.1.15,2013-01-31 12:00:00,
2013-01-31 04:10:00,33.8,32.5,30.27,ESE,120,0.0,0.0,95,0.00,,,0.00,Wunderground v.1.15,2013-01-31 12:10:00,
2013-01-31 04:20:00,33.4,32.1,30.27,ESE,120,0.0,0.0,95,0.00,,,0.00,Wunderground v.1.15,2013-01-31 12:20:00,
2013-01-31 04:30:00,32.9,31.6,30.27,ESE,120,0.0,0.0,95,0.00,,,0.00,Wunderground v.1.15,2013-01-31 12:30:00,
2013-01-31 04:40:00,32.9,31.9,30.27,ESE,120,0.0,0.0,96,0.00,,,0.00,Wunderground v.1.15,2013-01-31 12:40:00,
2013-01-31 04:45:00,32.8,31.8,30.26,ESE,120,0.0,0.0,96,0.00,,,0.00,Wunderground v.1.15,2013-01-31 12:45:00,
2013-01-31 04:55:00,32.7,31.7,30.26,ESE,120,0.0,0.0,96,0.00,,,0.00,Wunderground v.1.15,2013-01-31 12:55:00,
2013-01-31 05:00:00,32.5,31.2,30.26,ESE,120,0.0,0.0,95,0.00,,,0.00,Wunderground v.1.15,2013-01-31 13:00:00,
2013-01-31 05:10:00,32.2,31.2,30.27,ESE,120,0.0,0.0,96,0.00,,,0.00,Wunderground v.1.15,2013-01-31 13:10:00,
2013-01-31 05:15:00,32.0,30.7,30.26,ESE,109,0.0,0.0,95,0.00,,,0.00,Wunderground v.1.15,2013-01-31 13:15:00,
2013-01-31 05:25:00,31.5,30.2,30.26,ESE,109,0.0,0.0,95,0.00,,,0.00,Wunderground v.1.15,2013-01-31 13:25:00,
2013-01-31 05:35:00,31.2,29.9,30.26,ESE,109,0.0,0.0,95,0.00,,,0.00,Wunderground v.1.15,2013-01-31 13:35:00,
2013-01-31 05:40:00,31.1,30.1,30.27,ESE,109,0.0,0.0,96,0.00,,,0.00,Wunderground v.1.15,2013-01-31 13:40:00,
2013-01-31 05:50:00,31.3,30.3,30.27,ESE,109,0.0,0.0,96,0.00,,,0.00,Wunderground v.1.15,2013-01-31 13:50:00,
2013-01-31 06:00:00,31.4,30.4,30.27,ESE,109,0.0,0.0,96,0.00,,,0.00,Wunderground v.1.15,2013-01-31 14:00:00,
2013-01-31 06:10:00,31.5,30.5,30.27,ESE,109,0.0,0.0,96,0.00,,,0.00,Wunderground v.1.15,2013-01-31 14:10:00,
2013-01-31 06:20:00,31.3,30.3,30.27,ESE,109,0.0,0.0,96,0.00,,,0.00,Wunderground v.1.15,2013-01-31 14:20:00,
2013-01-31 06:30:00,30.9,29.9,30.27,ESE,108,0.0,0.0,96,0.00,,,0.00,Wunderground v.1.15,2013-01-31 14:30:00,
2013-01-31 06:40:00,31.0,30.0,30.27,ESE,108,0.0,0.0,96,0.00,,,0.00,Wunderground v.1.15,2013-01-31 14:40:00,
2013-01-31 06:50:00,31.1,30.1,30.28,ESE,108,0.0,0.0,96,0.00,,,0.00,Wunderground v.1.15,2013-01-31 14:50:00,
2013-01-31 07:00:00,31.0,30.0,30.28,ESE,109,0.0,0.0,96,0.00,,,0.00,Wunderground v.1.15,2013-01-31 15:00:00,
2013-01-31 07:10:00,30.9,29.9,30.28,ESE,109,0.0,0.0,96,0.00,,,0.00,Wunderground v.1.15,2013-01-31 15:10:00,
2013-01-31 07:20:00,30.9,29.9,30.28,ESE,109,0.0,0.0,96,0.00,,,0.00,Wunderground v.1.15,2013-01-31 15:20:00,
2013-01-31 07:30:00,31.5,30.5,30.28,ESE,109,0.0,0.0,96,0.00,,,0.00,Wunderground v.1.15,2013-01-31 15:30:00,
2013-01-31 07:40:00,32.3,31.3,30.28,SE,132,0.0,0.0,96,0.00,,,0.00,Wunderground v.1.15,2013-01-31 15:40:00,
2013-01-31 07:50:00,32.5,31.5,30.29,ESE,122,0.0,0.0,96,0.00,,,0.00,Wunderground v.1.15,2013-01-31 15:50:00,
2013-01-31 08:00:00,33.3,32.3,30.29,ESE,105,0.0,0.0,96,0.00,,,0.00,Wunderground v.1.15,2013-01-31 16:00:00,
2013-01-31 08:10:00,33.9,32.9,30.29,ESE,113,0.0,2.0,96,0.00,,,0.00,Wunderground v.1.15,2013-01-31 16:10:00,
2013-01-31 08:20:00,34.6,33.6,30.29,SE,134,2.0,2.0,96,0.00,,,0.00,Wunderground v.1.15,2013-01-31 16:20:00,
2013-01-31 08:30:00,35.5,34.5,30.29,ESE,116,1.0,1.0,96,0.00,,,0.00,Wunderground v.1.15,2013-01-31 16:30:00,
2013-01-31 08:40:00,36.7,35.4,30.29,East,99,1.0,1.0,95,0.00,,,0.00,Wunderground v.1.15,2013-01-31 16:40:00,
2013-01-31 08:50:00,38.0,36.7,30.29,ENE,77,1.0,1.0,95,0.00,,,0.00,Wunderground v.1.15,2013-01-31 16:50:00,
2013-01-31 08:55:00,38.6,37.0,30.29,ENE,76,1.0,1.0,94,0.00,,,0.00,Wunderground v.1.15,2013-01-31 16:55:00,
2013-01-31 09:00:00,39.4,37.5,30.29,ENE,71,1.0,2.0,93,0.00,,,0.00,Wunderground v.1.15,2013-01-31 17:00:00,
2013-01-31 09:10:00,40.2,38.3,30.29,ESE,110,1.0,1.0,93,0.00,,,0.00,Wunderground v.1.15,2013-01-31 17:10:00,
2013-01-31 09:20:00,40.8,38.4,30.29,ESE,107,2.0,2.0,91,0.00,,,0.00,Wunderground v.1.15,2013-01-31 17:20:00,
2013-01-31 09:25:00,41.9,39.7,30.29,East,98,1.0,2.0,92,0.00,,,0.00,Wunderground v.1.15,2013-01-31 17:25:00,
2013-01-31 09:35:00,42.9,40.2,30.29,NE,51,1.0,2.0,90,0.00,,,0.00,Wunderground v.1.15,2013-01-31 17:35:00,
2013-01-31 09:45:00,44.2,40.6,30.29,NNE,15,1.0,3.0,87,0.00,,,0.00,Wunderground v.1.15,2013-01-31 17:45:00,
2013-01-31 09:50:00,44.6,40.4,30.29,NE,36,2.0,2.0,85,0.00,,,0.00,Wunderground v.1.15,2013-01-31 17:50:00,
2013-01-31 09:55:00,45.2,41.3,30.29,NNE,33,1.0,2.0,86,0.00,,,0.00,Wunderground v.1.15,2013-01-31 17:55:00,
2013-01-31 10:00:00,45.9,41.0,30.29,NNE,30,1.0,1.0,83,0.00,,,0.00,Wunderground v.1.15,2013-01-31 18:00:00,
2013-01-31 10:10:00,47.7,42.8,30.29,ESE,120,0.0,0.0,83,0.00,,,0.00,Wunderground v.1.15,2013-01-31 18:10:00,
2013-01-31 10:20:00,49.4,42.8,30.29,NE,51,0.0,0.0,78,0.00,,,0.00,Wunderground v.1.15,2013-01-31 18:20:00,
2013-01-31 10:25:00,50.4,43.5,30.29,South,191,0.0,0.0,77,0.00,,,0.00,Wunderground v.1.15,2013-01-31 18:25:00,
2013-01-31 10:35:00,51.2,42.8,30.29,ENE,78,0.0,0.0,73,0.00,,,0.00,Wunderground v.1.15,2013-01-31 18:35:00,
2013-01-31 10:45:00,51.9,43.5,30.28,SSE,154,1.0,2.0,73,0.00,,,0.00,Wunderground v.1.15,2013-01-31 18:45:00,
2013-01-31 10:55:00,52.5,43.0,30.28,East,85,1.0,2.0,70,0.00,,,0.00,Wunderground v.1.15,2013-01-31 18:55:00,
2013-01-31 11:00:00,52.6,43.1,30.28,ENE,64,2.0,2.0,70,0.00,,,0.00,Wunderground v.1.15,2013-01-31 19:00:00,
2013-01-31 11:10:00,54.2,44.6,30.27,NNE,12,1.0,1.0,70,0.00,,,0.00,Wunderground v.1.15,2013-01-31 19:10:00,
2013-01-31 11:20:00,54.8,44.4,30.27,East,87,1.0,1.0,68,0.00,,,0.00,Wunderground v.1.15,2013-01-31 19:20:00,
2013-01-31 11:30:00,55.3,44.1,30.27,NW,319,1.0,1.0,66,0.00,,,0.00,Wunderground v.1.15,2013-01-31 19:30:00,
2013-01-31 11:35:00,55.5,44.3,30.26,North,349,1.0,1.0,66,0.00,,,0.00,Wunderground v.1.15,2013-01-31 19:35:00,
2013-01-31 11:45:00,56.7,43.8,30.26,ESE,107,1.0,2.0,62,0.00,,,0.00,Wunderground v.1.15,2013-01-31 19:45:00,
2013-01-31 11:55:00,58.1,45.1,30.25,South,186,1.0,1.0,62,0.00,,,0.00,Wunderground v.1.15,2013-01-31 19:55:00,
2013-01-31 12:00:00,58.4,44.6,30.25,SSE,156,1.0,2.0,60,0.00,,,0.00,Wunderground v.1.15,2013-01-31 20:00:00,
2013-01-31 12:10:00,58.8,45.4,30.24,ENE,70,1.0,1.0,61,0.00,,,0.00,Wunderground v.1.15,2013-01-31 20:10:00,
2013-01-31 12:20:00,59.0,44.7,30.24,ENE,66,2.0,2.0,59,0.00,,,0.00,Wunderground v.1.15,2013-01-31 20:20:00,
2013-01-31 12:30:00,60.1,45.7,30.23,East,98,1.0,5.0,59,0.00,,,0.00,Wunderground v.1.15,2013-01-31 20:30:00,
2013-01-31 12:40:00,60.0,45.2,30.22,ENE,72,3.0,3.0,58,0.00,,,0.00,Wunderground v.1.15,2013-01-31 20:40:00,
2013-01-31 12:50:00,60.8,45.5,30.22,ESE,115,2.0,2.0,57,0.00,,,0.00,Wunderground v.1.15,2013-01-31 20:50:00,
2013-01-31 12:55:00,61.0,45.2,30.22,ESE,114,2.0,2.0,56,0.00,,,0.00,Wunderground v.1.15,2013-01-31 20:55:00,
2013-01-31 13:00:00,61.3,45.9,30.21,ESE,120,2.0,2.0,57,0.00,,,0.00,Wunderground v.1.15,2013-01-31 21:00:00,
2013-01-31 13:10:00,62.4,46.0,30.21,South,174,1.0,1.0,55,0.00,,,0.00,Wunderground v.1.15,2013-01-31 21:10:00,
2013-01-31 13:20:00,63.7,46.7,30.20,SSW,195,1.0,1.0,54,0.00,,,0.00,Wunderground v.1.15,2013-01-31 21:20:00,
2013-01-31 13:25:00,64.3,46.3,30.20,WNW,283,0.0,1.0,52,0.00,,,0.00,Wunderground v.1.15,2013-01-31 21:25:00,
2013-01-31 13:35:00,63.8,46.3,30.20,WSW,255,1.0,3.0,53,0.00,,,0.00,Wunderground v.1.15,2013-01-31 21:35:00,
2013-01-31 13:45:00,64.1,46.1,30.19,NE,47,1.0,3.0,52,0.00,,,0.00,Wunderground v.1.15,2013-01-31 21:45:00,
2013-01-31 13:50:00,64.7,47.2,30.19,North,1,1.0,1.0,53,0.00,,,0.00,Wunderground v.1.15,2013-01-31 21:50:00,
2013-01-31 14:00:00,65.0,45.9,30.18,WSW,249,2.0,2.0,50,0.00,,,0.00,Wunderground v.1.15,2013-01-31 22:00:00,
2013-01-31 14:10:00,65.2,45.0,30.18,West,269,1.0,1.0,48,0.00,,,0.00,Wunderground v.1.15,2013-01-31 22:10:00,
2013-01-31 14:20:00,65.8,45.6,30.18,NNW,333,1.0,1.0,48,0.00,,,0.00,Wunderground v.1.15,2013-01-31 22:20:00,
2013-01-31 14:30:00,66.6,45.7,30.17,NE,36,1.0,2.0,47,0.00,,,0.00,Wunderground v.1.15,2013-01-31 22:30:00,
2013-01-31 14:40:00,66.7,44.7,30.17,East,89,1.0,1.0,45,0.00,,,0.00,Wunderground v.1.15,2013-01-31 22:40:00,
2013-01-31 14:50:00,68.2,44.8,30.16,SW,233,0.0,1.0,43,0.00,,,0.00,Wunderground v.1.15,2013-01-31 22:50:00,
2013-01-31 15:00:00,69.3,44.6,30.16,SSW,212,0.0,0.0,41,0.00,,,0.00,Wunderground v.1.15,2013-01-31 23:00:00,
2013-01-31 15:10:00,68.9,44.9,30.16,South,179,0.0,0.0,42,0.00,,,0.00,Wunderground v.1.15,2013-01-31 23:10:00,
2013-01-31 15:15:00,70.0,45.2,30.16,WSW,255,0.0,2.0,41,0.00,,,0.00,Wunderground v.1.15,2013-01-31 23:15:00,
2013-01-31 15:25:00,69.4,44.7,30.16,WNW,285,1.0,1.0,41,0.00,,,0.00,Wunderground v.1.15,2013-01-31 23:25:00,
2013-01-31 15:35:00,70.0,45.8,30.16,WSW,245,1.0,2.0,42,0.00,,,0.00,Wunderground v.1.15,2013-01-31 23:35:00,
2013-01-31 15:45:00,70.5,45.7,30.16,South,179,1.0,1.0,41,0.00,,,0.00,Wunderground v.1.15,2013-01-31 23:45:00,
2013-01-31 15:55:00,70.9,45.4,30.16,SW,217,1.0,1.0,40,0.00,,,0.00,Wunderground v.1.15,2013-01-31 23:55:00,
2013-01-31 16:00:00,70.6,45.7,30.15,SW,228,1.0,2.0,41,0.00,,,0.00,Wunderground v.1.15,2013-02-01 00:00:00,
2013-01-31 16:10:00,70.1,45.9,30.15,West,276,1.0,3.0,42,0.00,,,0.00,Wunderground v.1.15,2013-02-01 00:10:00,
2013-01-31 16:20:00,69.5,46.0,30.15,West,267,1.0,1.0,43,0.00,,,0.00,Wunderground v.1.15,2013-02-01 00:20:00,
2013-01-31 16:30:00,69.2,45.7,30.15,West,264,1.0,1.0,43,0.00,,,0.00,Wunderground v.1.15,2013-02-01 00:30:00,
2013-01-31 16:40:00,69.0,45.6,30.15,West,281,1.0,2.0,43,0.00,,,0.00,Wunderground v.1.15,2013-02-01 00:40:00,
2013-01-31 16:50:00,68.8,46.0,30.15,WSW,257,1.0,2.0,44,0.00,,,0.00,Wunderground v.1.15,2013-02-01 00:50:00,
2013-01-31 16:55:00,68.5,46.3,30.14,WSW,257,2.0,2.0,45,0.00,,,0.00,Wunderground v.1.15,2013-02-01 00:55:00,
2013-01-31 17:00:00,68.3,46.1,30.14,SW,228,1.0,2.0,45,0.00,,,0.00,Wunderground v.1.15,2013-02-01 01:00:00,
2013-01-31 17:10:00,66.8,47.0,30.15,WSW,255,1.0,2.0,49,0.00,,,0.00,Wunderground v.1.15,2013-02-01 01:10:00,
2013-01-31 17:20:00,64.5,47.0,30.15,NNW,340,2.0,2.0,53,0.00,,,0.00,Wunderground v.1.15,2013-02-01 01:20:00,
2013-01-31 17:25:00,63.8,46.3,30.15,WNW,297,2.0,2.0,53,0.00,,,0.00,Wunderground v.1.15,2013-02-01 01:25:00,
2013-01-31 17:30:00,63.9,45.4,30.15,North,10,2.0,2.0,51,0.00,,,0.00,Wunderground v.1.15,2013-02-01 01:30:00,
2013-01-31 17:40:00,63.6,45.6,30.15,NE,40,1.0,1.0,52,0.00,,,0.00,Wunderground v.1.15,2013-02-01 01:40:00,
2013-01-31 17:50:00,61.2,45.8,30.16,SW,225,1.0,2.0,57,0.00,,,0.00,Wunderground v.1.15,2013-02-01 01:50:00,
2013-01-31 17:55:00,59.6,45.7,30.15,West,271,1.0,2.0,60,0.00,,,0.00,Wunderground v.1.15,2013-02-01 01:55:00,
2013-01-31 18:00:00,58.2,45.7,30.16,West,271,1.0,1.0,63,0.00,,,0.00,Wunderground v.1.15,2013-02-01 02:00:00,
2013-01-31 18:10:00,56.7,45.9,30.16,West,270,2.0,2.0,67,0.00,,,0.00,Wunderground v.1.15,2013-02-01 02:10:00,
2013-01-31 18:15:00,56.3,45.9,30.16,WSW,254,2.0,2.0,68,0.00,,,0.00,Wunderground v.1.15,2013-02-01 02:15:00,
2013-01-31 18:25:00,55.5,45.5,30.16,WSW,252,2.0,2.0,69,0.00,,,0.00,Wunderground v.1.15,2013-02-01 02:25:00,
2013-01-31 18:30:00,55.1,45.1,30.16,WSW,255,2.0,2.0,69,0.00,,,0.00,Wunderground v.1.15,2013-02-01 02:30:00,
2013-01-31 18:40:00,54.0,44.8,30.17,WSW,253,2.0,2.0,71,0.00,,,0.00,Wunderground v.1.15,2013-02-01 02:40:00,
2013-01-31 18:50:00,53.3,44.5,30.17,WSW,257,2.0,2.0,72,0.00,,,0.00,Wunderground v.1.15,2013-02-01 02:50:00,
2013-01-31 19:00:00,52.2,44.2,30.17,West,264,1.0,1.0,74,0.00,,,0.00,Wunderground v.1.15,2013-02-01 03:00:00,
2013-01-31 19:10:00,51.3,44.0,30.17,WSW,252,1.0,4.0,76,0.00,,,0.00,Wunderground v.1.15,2013-02-01 03:10:00,
2013-01-31 19:20:00,51.1,43.8,30.17,WSW,249,3.0,3.0,76,0.00,,,0.00,Wunderground v.1.15,2013-02-01 03:20:00,
2013-01-31 19:30:00,50.7,43.8,30.18,WSW,250,2.0,2.0,77,0.00,,,0.00,Wunderground v.1.15,2013-02-01 03:30:00,
2013-01-31 19:35:00,50.2,43.6,30.18,WSW,243,2.0,2.0,78,0.00,,,0.00,Wunderground v.1.15,2013-02-01 03:35:00,
2013-01-31 19:45:00,49.3,43.1,30.18,West,276,1.0,2.0,79,0.00,,,0.00,Wunderground v.1.15,2013-02-01 03:45:00,
2013-01-31 19:55:00,49.3,43.4,30.19,WSW,237,2.0,4.0,80,0.00,,,0.00,Wunderground v.1.15,2013-02-01 03:55:00,
2013-01-31 20:00:00,49.4,43.2,30.19,WSW,253,2.0,2.0,79,0.00,,,0.00,Wunderground v.1.15,2013-02-01 04:00:00,
2013-01-31 20:10:00,48.9,43.0,30.19,SW,233,1.0,2.0,80,0.00,,,0.00,Wunderground v.1.15,2013-02-01 04:10:00,
2013-01-31 20:20:00,48.9,43.0,30.19,WNW,282,3.0,3.0,80,0.00,,,0.00,Wunderground v.1.15,2013-02-01 04:20:00,
2013-01-31 20:30:00,48.4,42.5,30.19,WSW,243,1.0,1.0,80,0.00,,,0.00,Wunderground v.1.15,2013-02-01 04:30:00,
2013-01-31 20:40:00,47.5,42.3,30.19,NNW,345,1.0,1.0,82,0.00,,,0.00,Wunderground v.1.15,2013-02-01 04:40:00,
2013-01-31 20:50:00,47.5,42.6,30.19,WSW,245,2.0,2.0,83,0.00,,,0.00,Wunderground v.1.15,2013-02-01 04:50:00,
2013-01-31 20:55:00,47.6,42.4,30.19,WSW,255,3.0,3.0,82,0.00,,,0.00,Wunderground v.1.15,2013-02-01 04:55:00,
2013-01-31 21:00:00,47.2,42.0,30.19,WSW,248,2.0,2.0,82,0.00,,,0.00,Wunderground v.1.15,2013-02-01 05:00:00,
2013-01-31 21:05:00,46.8,41.9,30.19,SW,235,2.0,2.0,83,0.00,,,0.00,Wunderground v.1.15,2013-02-01 05:05:00,
2013-01-31 21:10:00,46.6,41.7,30.19,West,272,2.0,2.0,83,0.00,,,0.00,Wunderground v.1.15,2013-02-01 05:10:00,
2013-01-31 21:20:00,46.0,41.4,30.19,West,262,2.0,2.0,84,0.00,,,0.00,Wunderground v.1.15,2013-02-01 05:20:00,
2013-01-31 21:25:00,45.5,40.9,30.19,West,270,2.0,2.0,84,0.00,,,0.00,Wunderground v.1.15,2013-02-01 05:25:00,
2013-01-31 21:35:00,45.3,41.1,30.19,WSW,240,2.0,3.0,85,0.00,,,0.00,Wunderground v.1.15,2013-02-01 05:35:00,
2013-01-31 21:45:00,45.7,41.1,30.19,WSW,245,3.0,3.0,84,0.00,,,0.00,Wunderground v.1.15,2013-02-01 05:45:00,
2013-01-31 21:50:00,45.5,41.3,30.19,West,259,2.0,2.0,85,0.00,,,0.00,Wunderground v.1.15,2013-02-01 05:50:00,
2013-01-31 22:00:00,45.0,40.8,30.19,WSW,240,2.0,2.0,85,0.00,,,0.00,Wunderground v.1.15,2013-02-01 06:00:00,
2013-01-31 22:10:00,44.9,40.7,30.19,WSW,252,2.0,2.0,85,0.00,,,0.00,Wunderground v.1.15,2013-02-01 06:10:00,
2013-01-31 22:20:00,44.8,40.6,30.19,SW,229,2.0,2.0,85,0.00,,,0.00,Wunderground v.1.15,2013-02-01 06:20:00,
2013-01-31 22:25:00,44.7,40.5,30.19,WSW,252,2.0,2.0,85,0.00,,,0.00,Wunderground v.1.15,2013-02-01 06:25:00,
2013-01-31 22:35:00,44.0,40.1,30.19,SW,219,1.0,1.0,86,0.00,,,0.00,Wunderground v.1.15,2013-02-01 06:35:00,
2013-01-31 22:40:00,43.7,39.8,30.19,SW,219,1.0,1.0,86,0.00,,,0.00,Wunderground v.1.15,2013-02-01 06:40:00,
2013-01-31 22:50:00,43.1,39.5,30.19,SW,224,0.0,0.0,87,0.00,,,0.00,Wunderground v.1.15,2013-02-01 06:50:00,
2013-01-31 23:00:00,42.6,39.3,30.19,WSW,249,0.0,0.0,88,0.00,,,0.00,Wunderground v.1.15,2013-02-01 07:00:00,
2013-01-31 23:10:00,42.2,38.9,30.19,West,260,0.0,2.0,88,0.00,,,0.00,Wunderground v.1.15,2013-02-01 07:10:00,
2013-01-31 23:15:00,41.7,38.4,30.19,WSW,256,1.0,2.0,88,0.00,,,0.00,Wunderground v.1.15,2013-02-01 07:15:00,
2013-01-31 23:20:00,41.4,38.1,30.19,West,260,1.0,1.0,88,0.00,,,0.00,Wunderground v.1.15,2013-02-01 07:20:00,
2013-01-31 23:30:00,40.9,37.9,30.19,West,267,0.0,0.0,89,0.00,,,0.00,Wunderground v.1.15,2013-02-01 07:30:00,
2013-01-31 23:40:00,40.9,38.2,30.19,West,267,0.0,0.0,90,0.00,,,0.00,Wunderground v.1.15,2013-02-01 07:40:00,
2013-01-31 23:50:00,40.6,37.6,30.19,South,185,0.0,0.0,89,0.00,,,0.00,Wunderground v.1.15,2013-02-01 07:50:00,